COSMOS 2251 DEB, 33984

Orbit data source: Space-Track

COSMOS 2251 DEB, 33984 is space debris in LEO originally from a launch on Wed, 16 Jun 1993 UTC launched from the Plesetsk Missile And Space Complex (PKMTR). The debris from Iridium 33, an American commercial communications satellite, has been tracked extensively since its accidental collision with the defunct Russian satellite Cosmos 2251 in 2009. This event, occurring at high speed in low Earth orbit (LEO), generated thousands of pieces of space debris, significantly increasing the risk of further collisions. The Iridium 33 debris cloud has impacted space traffic management and orbital debris mitigation strategies, making it a subject of ongoing study in space situational awareness.

Loading next visibility...
Identifier
33984, 1993-036FT
Orbit
LEO
Country
Flag of CISCIS
Related business
Manufacturer
Unknown
Mission
Spacecraft
Bus & Motor
Unknown
Mass
Unknown
Launch date (UTC)
1993-06-16 (33 years ago)
Launch vehicle
Unknown
Launch site
Plesetsk Missile And Space Complex (PKMTR)
Object type
Payload
Rocket body
Debris
Shape & HBR
Unknown shape, 0.2 m
Radar Cross Section
Medium (>0.1 m² and <1 m²)

Expand to show TLE details & history
Last TLE update: 12 hours ago

TLE from 12 hours ago
0 COSMOS 2251 DEB
1 33984U 93036FT  26264.81233503  .00001736  00000-0  30332-3 0  9994
2 33984  74.0080 159.3832 0023832 278.0338 149.1294 14.68556016932194
Epoch: 2026-09-21T19:29Z
TLE epoch observation values (Epoch: 2026-09-21T19:29:45.746Z)
Latitude
62.5844°
Longitude
-100.40767°
Altitude
690.49 km
Speed
7.509 km/s
True Right ascension
12h 50m 52s
True Declination
62° 26' 32"
Sunlit
Object was in daylight at epoch
Visualization orbit readout
Latitude
Unknown
Longitude
Unknown
Altitude
Unknown
Speed
Unknown
Apparent Right ascension
Unknown
Apparent Declination
Unknown
Sunlit
N/A
Visualization observer readout
Local Sidereal Time
00:57:08
Azimuth
Unknown
Elevation
Unknown
Doppler factor
Unknown
Orbital elements
Apogee altitude
680.053 km
Perigee altitude
646.491 km
Semi-major axis
7,041.409 km
Eccentricity
0.00238
Inclination
74.008°
RAAN
159.3832°
Arg. of periapsis
278.0338°
True anomaly
149.26917°
Mean anomaly
149.1294°
Eccentric anomaly
149.19932°
Mean motion
3.67328 °/min
Orbital period
98.01 mins
BSTAR
0.00030332

Documentation

Showing up to 5 results
|